Napa County, CA

2:58 AM PST on December 17, 2017 (GMT -0800)
Napa County

Weather History for KAPC - October, 2014

Change the Weather History Date:

Sunday, October 19, 2014

  Actual Average Record
Temperature  
Mean Temperature 62 °F 58 °F  
Max Temperature 75 °F 74 °F 81 °F (2013)
Min Temperature 49 °F 43 °F 38 °F (1998)
Degree Days  
Heating Degree Days 3    
Month to date heating degree days 45  
Since 1 July heating degree days 89  
Cooling Degree Days 0    
Month to date cooling degree days 31  
Year to date cooling degree days 267  
Growing Degree Days 12 (Base 50)    
Moisture  
Dew Point 57 °F    
Average Humidity 79    
Maximum Humidity 100    
Minimum Humidity 57    
Precipitation  
Precipitation 0.00 in - 1.03 in (1979)
Month to date precipitation 0.15  
Year to date precipitation 8.80  
Since 1 July precipitation 0.53  
Sea Level Pressure  
Sea Level Pressure 29.88 in    
Wind  
Wind Speed 6 mph (WSW)    
Max Wind Speed 15 mph    
Max Gust Speed 18 mph    
Visibility 6 miles    
Events Fog    
T = Trace of Precipitation, MM = Missing Value Source: NWS Daily Summary

Daily Weather History Graph

Daily Weather History Graph

Search for Another Location

Airport or City:

Trip Planner

Search our weather history database for the weather conditions in past years. The results will help you decide how hot, cold, wet, or windy it might be!

Date:

Astronomy

Oct. 19, 2014 Rise Set
Actual Time 7:21 AM PDT 6:25 PM PDT
Civil Twilight 6:55 AM PDT 6:52 PM PDT
Nautical Twilight 6:24 AM PDT 7:23 PM PDT
Astronomical Twilight 5:53 AM PDT 7:53 PM PDT
Moon 3:23 AM PDT (10/19) 4:17 PM PDT (10/19)
Length of Visible Light 11h 57m
Length of Day
11h 03m
Waning Crescent, 16% of the Moon is Illuminated
Oct 19
Waning Crescent
Oct 23
New
Oct 30
First Quarter
Nov 6
Full
Nov 14
Last Quarter

Hourly Weather History & Observations

Time (PDT) Temp. Dew Point Humidity Pressure Visibility Wind Dir Wind Speed Gust Speed Precip Events Conditions
12:54 AM 55.0 °F 55.0 °F 100% 29.87 in 9.0 mi Calm Calm - N/A   Clear
1:18 AM 54.0 °F 54.0 °F 100% 29.89 in 1.8 mi Calm Calm - N/A   Clear
1:23 AM 53.1 °F 53.1 °F 100% 29.90 in 0.5 mi Calm Calm - N/A Fog Fog
1:43 AM 55.0 °F 55.0 °F 100% 29.90 in 0.8 mi Calm Calm - N/A   Mist
1:54 AM 50.0 °F 50.0 °F 100% 29.88 in 0.5 mi Calm Calm - N/A Fog Fog
2:54 AM 52.0 °F 52.0 °F 100% 29.87 in 0.2 mi Calm Calm - N/A Fog Fog
3:54 AM 51.1 °F 51.1 °F 100% 29.86 in 0.5 mi WNW 4.6 mph - N/A Fog Fog
4:54 AM 55.0 °F 55.0 °F 100% 29.85 in 0.2 mi Calm Calm - N/A Fog Fog
5:54 AM 55.0 °F 55.0 °F 100% 29.86 in 0.2 mi Calm Calm - N/A Fog Fog
6:54 AM 55.0 °F 55.0 °F 100% 29.88 in 0.2 mi Calm Calm - N/A Fog Fog
7:54 AM 55.0 °F 55.0 °F 100% 29.89 in 0.2 mi Calm Calm - N/A Fog Fog
8:54 AM 55.9 °F 55.9 °F 100% 29.90 in 0.2 mi Calm Calm - N/A Fog Fog
9:54 AM 57.9 °F 57.9 °F 100% 29.91 in 0.2 mi Calm Calm - N/A Fog Fog
10:14 AM 57.9 °F 57.9 °F 100% 29.93 in 1.0 mi East 3.5 mph - N/A   Overcast
10:20 AM 59.0 °F 59.0 °F 100% 29.93 in 3.0 mi Variable 3.5 mph - N/A   Overcast
10:54 AM 59.0 °F 59.0 °F 100% 29.90 in 8.0 mi SW 3.5 mph - N/A   Overcast
11:43 AM 63.0 °F 59.0 °F 87% 29.92 in 10.0 mi South 4.6 mph - N/A   Mostly Cloudy
11:50 AM 62.6 °F 59.0 °F 88% 29.92 in 10.0 mi Variable 3.5 mph - N/A   Scattered Clouds
11:54 AM 64.0 °F 59.0 °F 84% 29.90 in 10.0 mi Variable 5.8 mph - N/A   Partly Cloudy
12:54 PM 70.0 °F 59.0 °F 68% 29.88 in 10.0 mi SSW 6.9 mph - N/A   Clear
1:54 PM 73.9 °F 57.9 °F 57% 29.85 in 10.0 mi SSW 6.9 mph - N/A   Clear
2:54 PM 73.9 °F 59.0 °F 59% 29.84 in 10.0 mi South 10.4 mph - N/A   Clear
3:54 PM 73.0 °F 59.0 °F 61% 29.83 in 10.0 mi SSW 13.8 mph - N/A   Clear
4:54 PM 72.0 °F 60.1 °F 66% 29.82 in 10.0 mi SSW 11.5 mph - N/A   Clear
5:54 PM 69.1 °F 61.0 °F 75% 29.82 in 10.0 mi SSW 8.1 mph - N/A   Clear
6:54 PM 64.9 °F 60.1 °F 84% 29.83 in 10.0 mi WSW 9.2 mph - N/A   Clear
7:54 PM 62.1 °F 57.9 °F 86% 29.84 in 10.0 mi West 11.5 mph - N/A   Clear
8:54 PM 61.0 °F 57.9 °F 90% 29.86 in 10.0 mi WSW 8.1 mph - N/A   Clear
9:54 PM 61.0 °F 57.9 °F 90% 29.86 in 10.0 mi West 11.5 mph - N/A   Clear
10:30 PM 61.0 °F 57.9 °F 90% 29.89 in 10.0 mi West 6.9 mph - N/A   Mostly Cloudy
10:37 PM 62.1 °F 59.0 °F 90% 29.89 in 10.0 mi West 8.1 mph - N/A   Mostly Cloudy
10:54 PM 62.1 °F 57.9 °F 86% 29.87 in 10.0 mi West 13.8 mph - N/A   Overcast
11:45 PM 62.1 °F 57.9 °F 86% 29.90 in 10.0 mi West 8.1 mph - N/A   Overcast
11:54 PM 62.1 °F 57.9 °F 86% 29.88 in 10.0 mi West 10.4 mph - N/A   Overcast